To NAV CANADA Home Page Login to a new session Search on AWWS site Feedback and Comments Disclaimer Vers la page française équivalente Tips FAQ What's new on the site To the Forecasts and Observations / NOTAM section To "File a Flight Plan" website Publications and other links Update of the User's profile FIC Telephone Numbers My Weather Data Folder Route Weather Data Regional Weather Data Local Weather Data To the Forecasts and Observations / NOTAM section
Request Generated 03/28/2017 at 02:21:00 UTC . Weather information available at that time is displayed.

METAR/TAF

CHESTERFIELD INLET/NU    

LWIS CYCS 280200Z AUTO 31006KT M21/M23 A3042=
LWIS CYCS 280100Z AUTO 31006KT M21/M23 A3042=
LWIS CYCS 280000Z AUTO 31006KT M20/M22 A3042=

CYCS - No TAF is issued for this station

Your time UTC time
Weather data provided by Environment Canada and NAV CANADA